Wetterdaten: Woche 05.12.16 - 11.12.16 (KW49)
Datum Zeit Temp. I. Temp. A. Feuchte I. Feuchte A. Luftdruck Regen Wind Richtung Sonnenschein UV Solar Taupunkt Windchill Windben
05.12.2016 00:00 23,4 C -2,7 C 46 % 85 % 1031,1 hPa 0,0 l/m 1,6 km/h (1 Bft) O-NO 0,00 h 0,0 UV-I 0 W/m -4,9 C -2,7 C 3,8 km/h (1 Bft)
05.12.2016 01:00 23,3 C -3,2 C 47 % 86 % 1030,8 hPa 0,0 l/m 2,1 km/h (1 Bft) O-NO 0,00 h 0,0 UV-I 0 W/m -5,2 C -3,2 C 4,7 km/h (1 Bft)
05.12.2016 02:00 23,3 C -4,1 C 47 % 86 % 1030,7 hPa 0,0 l/m 1,0 km/h (0 Bft) O-NO 0,00 h 0,0 UV-I 0 W/m -6,2 C -4,1 C 2,8 km/h (1 Bft)
05.12.2016 03:00 23,2 C -5,4 C 47 % 87 % 1030,4 hPa 0,0 l/m 0,6 km/h (0 Bft) O-NO 0,00 h 0,0 UV-I 0 W/m -7,3 C -5,4 C 1,6 km/h (1 Bft)
05.12.2016 04:00 23,2 C -6,4 C 47 % 88 % 1030,4 hPa 0,0 l/m 0,7 km/h (0 Bft) O-NO 0,00 h 0,0 UV-I 0 W/m -8,0 C -6,4 C 1,8 km/h (1 Bft)
05.12.2016 05:00 23,1 C -6,9 C 47 % 89 % 1030,1 hPa 0,0 l/m 0,4 km/h (0 Bft) O 0,00 h 0,0 UV-I 0 W/m -8,4 C -6,9 C 1,2 km/h (1 Bft)
05.12.2016 06:00 23,0 C -7,4 C 47 % 90 % 1030,0 hPa 0,0 l/m 0,5 km/h (0 Bft) O 0,00 h 0,0 UV-I 0 W/m -8,8 C -7,4 C 1,1 km/h (1 Bft)
05.12.2016 07:00 23,1 C -7,8 C 48 % 90 % 1030,2 hPa 0,0 l/m 0,2 km/h (0 Bft) O 0,00 h 0,0 UV-I 5 W/m -9,2 C -7,8 C 0,5 km/h (0 Bft)
05.12.2016 08:00 23,4 C -7,6 C 50 % 91 % 1030,5 hPa 0,0 l/m 0,1 km/h (0 Bft) O-NO 0,00 h 0,0 UV-I 38 W/m -8,8 C -7,6 C 0,5 km/h (0 Bft)
05.12.2016 09:00 23,3 C -5,3 C 50 % 90 % 1030,6 hPa 0,0 l/m 0,0 km/h (0 Bft) SW 0,00 h 0,0 UV-I 106 W/m -6,7 C -5,3 C 0,0 km/h (0 Bft)
05.12.2016 15:00 22,5 C -4,1 C 41 % 91 % 1029,8 hPa 0,0 l/m 4,6 km/h (1 Bft) S 0,00 h 0,0 UV-I 9 W/m -5,2 C -4,2 C 7,3 km/h (2 Bft)
05.12.2016 16:00 22,4 C -4,2 C 40 % 92 % 1029,9 hPa 0,0 l/m 4,2 km/h (1 Bft) S 0,00 h 0,0 UV-I 0 W/m -5,3 C -4,4 C 6,8 km/h (2 Bft)
05.12.2016 17:00 22,5 C -4,2 C 40 % 94 % 1030,0 hPa 0,0 l/m 4,6 km/h (1 Bft) S 0,00 h 0,0 UV-I 0 W/m -5,1 C -4,5 C 7,3 km/h (2 Bft)
05.12.2016 18:00 22,7 C -3,9 C 40 % 95 % 1030,0 hPa 0,0 l/m 4,7 km/h (1 Bft) S 0,00 h 0,0 UV-I 0 W/m -4,7 C -4,2 C 7,8 km/h (2 Bft)
05.12.2016 19:00 23,0 C -3,6 C 40 % 95 % 1030,1 hPa 0,0 l/m 3,7 km/h (1 Bft) SW 0,00 h 0,0 UV-I 0 W/m -4,3 C -3,7 C 6,3 km/h (2 Bft)
05.12.2016 20:00 23,2 C -3,5 C 42 % 96 % 1030,2 hPa 0,0 l/m 4,1 km/h (1 Bft) SW 0,00 h 0,0 UV-I 0 W/m -4,1 C -3,6 C 7,5 km/h (2 Bft)
05.12.2016 21:00 23,3 C -3,5 C 43 % 96 % 1030,3 hPa 0,0 l/m 5,3 km/h (1 Bft) S 0,00 h 0,0 UV-I 0 W/m -4,1 C -4,1 C 7,9 km/h (2 Bft)
05.12.2016 22:00 23,2 C -3,4 C 43 % 96 % 1030,3 hPa 0,0 l/m 3,4 km/h (1 Bft) SW 0,00 h 0,0 UV-I 0 W/m -3,9 C -3,4 C 6,0 km/h (2 Bft)
05.12.2016 23:00 22,8 C -3,4 C 44 % 96 % 1030,5 hPa 0,0 l/m 5,9 km/h (2 Bft) S 0,00 h 0,0 UV-I 0 W/m -4,0 C -4,3 C 9,1 km/h (2 Bft)
06.12.2016 00:00 22,7 C -3,6 C 44 % 96 % 1030,6 hPa 0,0 l/m 4,4 km/h (1 Bft) SW 0,00 h 0,0 UV-I 0 W/m -4,1 C -3,7 C 7,7 km/h (2 Bft)
06.12.2016 01:00 22,6 C -3,6 C 44 % 96 % 1030,7 hPa 0,0 l/m 3,7 km/h (1 Bft) S-SW 0,00 h 0,0 UV-I 0 W/m -4,1 C -3,6 C 6,8 km/h (2 Bft)
06.12.2016 02:00 22,4 C -3,6 C 44 % 96 % 1030,9 hPa 0,0 l/m 4,3 km/h (1 Bft) S 0,00 h 0,0 UV-I 0 W/m -4,1 C -3,7 C 7,2 km/h (2 Bft)
06.12.2016 03:00 22,4 C -3,6 C 45 % 96 % 1030,9 hPa 0,0 l/m 3,4 km/h (1 Bft) W-SW 0,00 h 0,0 UV-I 0 W/m -4,2 C -3,6 C 6,2 km/h (2 Bft)
06.12.2016 04:00 22,3 C -3,7 C 45 % 96 % 1030,9 hPa 0,0 l/m 2,5 km/h (1 Bft) W-SW 0,00 h 0,0 UV-I 0 W/m -4,2 C -3,7 C 5,1 km/h (1 Bft)
06.12.2016 05:00 22,3 C -3,7 C 45 % 96 % 1031,0 hPa 0,0 l/m 3,3 km/h (1 Bft) S 0,00 h 0,0 UV-I 0 W/m -4,3 C -3,8 C 5,6 km/h (1 Bft)
06.12.2016 06:00 22,2 C -3,8 C 45 % 96 % 1031,5 hPa 0,0 l/m 3,5 km/h (1 Bft) W-SW 0,00 h 0,0 UV-I 0 W/m -4,3 C -3,8 C 5,8 km/h (2 Bft)
06.12.2016 07:00 22,2 C -3,9 C 45 % 96 % 1032,1 hPa 0,0 l/m 2,7 km/h (1 Bft) W-SW 0,00 h 0,0 UV-I 0 W/m -4,4 C -3,8 C 5,1 km/h (1 Bft)
06.12.2016 08:00 22,4 C -3,9 C 46 % 96 % 1032,4 hPa 0,0 l/m 2,9 km/h (1 Bft) W 0,00 h 0,0 UV-I 11 W/m -4,5 C -3,9 C 5,1 km/h (1 Bft)
06.12.2016 09:00 22,3 C -3,9 C 45 % 96 % 1033,0 hPa 0,0 l/m 3,1 km/h (1 Bft) S 0,00 h 0,0 UV-I 28 W/m -4,4 C -3,9 C 5,5 km/h (1 Bft)
06.12.2016 10:00 22,2 C -3,7 C 43 % 96 % 1033,5 hPa 0,0 l/m 2,5 km/h (1 Bft) S 0,00 h 0,0 UV-I 51 W/m -4,3 C -3,7 C 4,6 km/h (1 Bft)
06.12.2016 11:00 22,2 C -3,6 C 42 % 96 % 1033,5 hPa 0,0 l/m 2,6 km/h (1 Bft) S-SO 0,00 h 0,5 UV-I 72 W/m -4,1 C -3,6 C 4,6 km/h (1 Bft)
06.12.2016 12:00 22,1 C -3,4 C 41 % 96 % 1033,7 hPa 0,0 l/m 1,0 km/h (0 Bft) W-SW 0,00 h 0,5 UV-I 86 W/m -4,0 C -3,4 C 2,2 km/h (1 Bft)
06.12.2016 13:00 22,0 C -3,3 C 40 % 95 % 1033,6 hPa 0,0 l/m 0,6 km/h (0 Bft) W-NW 0,00 h 0,5 UV-I 70 W/m -4,0 C -3,3 C 1,5 km/h (1 Bft)
06.12.2016 14:00 22,2 C -3,2 C 41 % 95 % 1033,9 hPa 0,0 l/m 0,3 km/h (0 Bft) S 0,00 h 0,0 UV-I 37 W/m -3,8 C -3,2 C 0,7 km/h (0 Bft)
06.12.2016 15:00 22,4 C -3,4 C 41 % 94 % 1034,3 hPa 0,0 l/m 1,5 km/h (1 Bft) S-SO 0,00 h 0,0 UV-I 15 W/m -4,2 C -3,4 C 3,1 km/h (1 Bft)
06.12.2016 16:00 22,2 C -3,8 C 41 % 94 % 1034,8 hPa 0,0 l/m 1,0 km/h (0 Bft) S 0,00 h 0,0 UV-I 0 W/m -4,5 C -3,8 C 2,2 km/h (1 Bft)
06.12.2016 17:00 22,2 C -3,7 C 41 % 95 % 1035,4 hPa 0,0 l/m 0,1 km/h (0 Bft) S 0,00 h 0,0 UV-I 0 W/m -4,4 C -3,7 C 0,7 km/h (0 Bft)
06.12.2016 18:00 22,4 C -3,8 C 41 % 95 % 1035,6 hPa 0,0 l/m 0,5 km/h (0 Bft) NO 0,00 h 0,0 UV-I 0 W/m -4,4 C -3,8 C 1,4 km/h (1 Bft)
06.12.2016 19:00 22,6 C -3,8 C 41 % 95 % 1035,9 hPa 0,0 l/m 0,9 km/h (0 Bft) O-NO 0,00 h 0,0 UV-I 0 W/m -4,5 C -3,8 C 2,1 km/h (1 Bft)
06.12.2016 20:00 22,7 C -4,2 C 41 % 95 % 1036,3 hPa 0,0 l/m 0,2 km/h (0 Bft) N 0,00 h 0,0 UV-I 0 W/m -4,8 C -4,2 C 0,6 km/h (0 Bft)
06.12.2016 21:00 22,8 C -4,2 C 42 % 95 % 1036,6 hPa 0,0 l/m 0,2 km/h (0 Bft) N-NO 0,00 h 0,0 UV-I 0 W/m -4,9 C -4,2 C 0,5 km/h (0 Bft)
06.12.2016 22:00 22,9 C -4,6 C 42 % 95 % 1036,8 hPa 0,0 l/m 0,2 km/h (0 Bft) O-NO 0,00 h 0,0 UV-I 0 W/m -5,3 C -4,6 C 0,7 km/h (0 Bft)
06.12.2016 23:00 22,5 C -5,0 C 42 % 95 % 1036,9 hPa 0,0 l/m 0,0 km/h (0 Bft) N 0,00 h 0,0 UV-I 0 W/m -5,7 C -5,0 C 0,0 km/h (0 Bft)
07.12.2016 00:00 22,3 C -5,3 C 42 % 95 % 1036,8 hPa 0,0 l/m 0,2 km/h (0 Bft) S-SO 0,00 h 0,0 UV-I 0 W/m -6,0 C -5,3 C 0,5 km/h (0 Bft)
07.12.2016 01:00 22,2 C -5,3 C 42 % 95 % 1036,9 hPa 0,0 l/m 0,3 km/h (0 Bft) SO 0,00 h 0,0 UV-I 0 W/m -6,0 C -5,3 C 0,8 km/h (0 Bft)
07.12.2016 02:00 22,1 C -5,3 C 42 % 95 % 1037,5 hPa 0,0 l/m 0,1 km/h (0 Bft) S-SO 0,00 h 0,0 UV-I 0 W/m -6,0 C -5,3 C 0,3 km/h (0 Bft)
07.12.2016 03:00 22,0 C -5,4 C 43 % 95 % 1037,3 hPa 0,0 l/m 0,1 km/h (0 Bft) O-SO 0,00 h 0,0 UV-I 0 W/m -6,1 C -5,4 C 0,4 km/h (0 Bft)
07.12.2016 04:00 21,9 C -5,4 C 43 % 95 % 1037,7 hPa 0,0 l/m 0,4 km/h (0 Bft) S-SO 0,00 h 0,0 UV-I 0 W/m -6,1 C -5,4 C 1,1 km/h (1 Bft)
07.12.2016 05:00 21,9 C -6,0 C 43 % 95 % 1037,8 hPa 0,0 l/m 0,8 km/h (0 Bft) S-SO 0,00 h 0,0 UV-I 0 W/m -6,7 C -6,0 C 1,9 km/h (1 Bft)
07.12.2016 06:00 21,8 C -6,4 C 43 % 95 % 1037,6 hPa 0,0 l/m 0,2 km/h (0 Bft) SO 0,00 h 0,0 UV-I 0 W/m -7,1 C -6,4 C 0,9 km/h (0 Bft)
07.12.2016 07:00 21,8 C -6,4 C 43 % 95 % 1037,7 hPa 0,0 l/m 1,1 km/h (1 Bft) S-SO 0,00 h 0,0 UV-I 5 W/m -7,1 C -6,4 C 2,4 km/h (1 Bft)
07.12.2016 08:00 22,0 C -6,3 C 44 % 95 % 1038,2 hPa 0,0 l/m 0,9 km/h (0 Bft) SO 0,00 h 0,0 UV-I 16 W/m -6,9 C -6,3 C 2,1 km/h (1 Bft)
07.12.2016 09:00 22,0 C -5,9 C 44 % 95 % 1038,2 hPa 0,0 l/m 0,4 km/h (0 Bft) S-SO 0,00 h 0,0 UV-I 60 W/m -6,5 C -5,9 C 1,3 km/h (1 Bft)
07.12.2016 10:00 21,8 C -5,1 C 42 % 95 % 1038,2 hPa 0,0 l/m 0,1 km/h (0 Bft) S-SW 0,00 h 0,5 UV-I 74 W/m -5,8 C -5,1 C 0,4 km/h (0 Bft)
07.12.2016 11:00 21,8 C -4,1 C 40 % 96 % 1037,9 hPa 0,0 l/m 0,0 km/h (0 Bft) N 0,00 h 0,5 UV-I 76 W/m -4,7 C -4,1 C 0,1 km/h (0 Bft)
07.12.2016 12:00 21,8 C -3,3 C 40 % 96 % 1037,5 hPa 0,0 l/m 0,0 km/h (0 Bft) N 0,00 h 0,5 UV-I 82 W/m -3,8 C -3,3 C 0,1 km/h (0 Bft)
07.12.2016 13:00 22,1 C -2,8 C 39 % 96 % 1037,0 hPa 0,0 l/m 0,2 km/h (0 Bft) SW 0,00 h 0,5 UV-I 73 W/m -3,3 C -2,8 C 0,9 km/h (0 Bft)
07.12.2016 14:00 22,4 C -2,4 C 40 % 96 % 1036,9 hPa 0,0 l/m 0,4 km/h (0 Bft) S 0,00 h 0,0 UV-I 41 W/m -3,0 C -2,4 C 1,4 km/h (1 Bft)
07.12.2016 15:00 22,7 C -2,4 C 43 % 96 % 1036,8 hPa 0,0 l/m 0,5 km/h (0 Bft) S 0,00 h 0,0 UV-I 15 W/m -2,9 C -2,4 C 1,5 km/h (1 Bft)
07.12.2016 16:00 22,5 C -2,5 C 42 % 96 % 1037,0 hPa 0,0 l/m 0,6 km/h (0 Bft) S 0,00 h 0,0 UV-I 0 W/m -3,0 C -2,5 C 1,9 km/h (1 Bft)
07.12.2016 17:00 22,6 C -2,5 C 43 % 96 % 1037,2 hPa 0,0 l/m 0,6 km/h (0 Bft) W-SW 0,00 h 0,0 UV-I 0 W/m -3,1 C -2,5 C 1,9 km/h (1 Bft)
07.12.2016 18:00 22,8 C -2,6 C 43 % 96 % 1037,4 hPa 0,0 l/m 0,2 km/h (0 Bft) SW 0,00 h 0,0 UV-I 0 W/m -3,2 C -2,6 C 0,6 km/h (0 Bft)
07.12.2016 19:00 22,8 C -2,7 C 45 % 96 % 1037,6 hPa 0,0 l/m 0,0 km/h (0 Bft) N 0,00 h 0,0 UV-I 0 W/m -3,2 C -2,7 C 0,1 km/h (0 Bft)
07.12.2016 20:00 22,8 C -2,6 C 45 % 96 % 1037,5 hPa 0,0 l/m 0,3 km/h (0 Bft) W-SW 0,00 h 0,0 UV-I 0 W/m -3,1 C -2,6 C 1,3 km/h (1 Bft)
07.12.2016 21:00 22,7 C -2,4 C 45 % 96 % 1037,6 hPa 0,0 l/m 0,4 km/h (0 Bft) W-SW 0,00 h 0,0 UV-I 0 W/m -3,0 C -2,4 C 1,6 km/h (1 Bft)
07.12.2016 22:00 22,6 C -2,4 C 44 % 96 % 1037,7 hPa 0,0 l/m 0,5 km/h (0 Bft) SW 0,00 h 0,0 UV-I 0 W/m -2,9 C -2,4 C 1,4 km/h (1 Bft)
07.12.2016 23:00 22,4 C -2,5 C 43 % 96 % 1037,7 hPa 0,0 l/m 0,4 km/h (0 Bft) W-SW 0,00 h 0,0 UV-I 0 W/m -3,0 C -2,5 C 1,3 km/h (1 Bft)
08.12.2016 00:00 22,2 C -2,6 C 40 % 96 % 1037,2 hPa 0,0 l/m 0,0 km/h (0 Bft) N 0,00 h 0,0 UV-I 0 W/m -3,1 C -2,6 C 0,0 km/h (0 Bft)
08.12.2016 01:00 22,1 C -2,6 C 41 % 96 % 1037,2 hPa 0,0 l/m 1,3 km/h (1 Bft) W-SW 0,00 h 0,0 UV-I 0 W/m -3,1 C -2,6 C 2,6 km/h (1 Bft)
08.12.2016 02:00 22,3 C -2,7 C 42 % 95 % 1037,1 hPa 0,0 l/m 0,5 km/h (0 Bft) SW 0,00 h 0,0 UV-I 0 W/m -3,3 C -2,7 C 1,6 km/h (1 Bft)
08.12.2016 03:00 22,0 C -2,9 C 43 % 95 % 1037,0 hPa 0,0 l/m 1,2 km/h (1 Bft) SW 0,00 h 0,0 UV-I 0 W/m -3,5 C -2,9 C 2,8 km/h (1 Bft)
08.12.2016 04:00 21,9 C -3,1 C 43 % 95 % 1036,7 hPa 0,0 l/m 0,3 km/h (0 Bft) S-SW 0,00 h 0,0 UV-I 0 W/m -3,8 C -3,1 C 1,1 km/h (0 Bft)
08.12.2016 05:00 21,8 C -3,3 C 44 % 95 % 1036,5 hPa 0,0 l/m 2,0 km/h (1 Bft) W-SW 0,00 h 0,0 UV-I 0 W/m -4,0 C -3,3 C 4,2 km/h (1 Bft)
08.12.2016 06:00 21,7 C -3,4 C 44 % 95 % 1036,5 hPa 0,0 l/m 0,9 km/h (0 Bft) S 0,00 h 0,0 UV-I 0 W/m -4,1 C -3,4 C 2,2 km/h (1 Bft)
08.12.2016 07:00 21,8 C -3,3 C 45 % 95 % 1036,5 hPa 0,0 l/m 1,6 km/h (1 Bft) S 0,00 h 0,0 UV-I 0 W/m -4,0 C -3,3 C 3,6 km/h (1 Bft)
08.12.2016 08:00 22,3 C -3,3 C 46 % 95 % 1036,4 hPa 0,0 l/m 1,5 km/h (1 Bft) S 0,00 h 0,0 UV-I 20 W/m -4,0 C -3,3 C 3,3 km/h (1 Bft)
08.12.2016 09:00 22,7 C -3,0 C 46 % 96 % 1036,3 hPa 0,0 l/m 1,0 km/h (0 Bft) S 0,00 h 0,0 UV-I 52 W/m -3,6 C -3,0 C 2,5 km/h (1 Bft)
08.12.2016 10:00 22,5 C -2,6 C 44 % 96 % 1036,5 hPa 0,0 l/m 1,2 km/h (1 Bft) S 0,17 h 0,6 UV-I 101 W/m -3,2 C -2,6 C 3,0 km/h (1 Bft)
08.12.2016 11:00 22,5 C -1,8 C 44 % 94 % 1036,0 hPa 0,0 l/m 1,2 km/h (1 Bft) S 0,08 h 0,7 UV-I 124 W/m -2,6 C -1,8 C 3,1 km/h (1 Bft)
08.12.2016 12:00 22,7 C -1,0 C 43 % 93 % 1035,2 hPa 0,0 l/m 1,5 km/h (1 Bft) S 0,55 h 0,8 UV-I 203 W/m -2,0 C -1,0 C 3,5 km/h (1 Bft)
08.12.2016 13:00 23,2 C 0,0 C 42 % 90 % 1034,3 hPa 0,0 l/m 2,6 km/h (1 Bft) S 0,60 h 0,7 UV-I 173 W/m -1,5 C -0,0 C 5,5 km/h (1 Bft)
08.12.2016 14:00 23,6 C -1,0 C 43 % 92 % 1034,0 hPa 0,0 l/m 3,4 km/h (1 Bft) S 0,00 h 0,5 UV-I 77 W/m -2,1 C -1,0 C 6,6 km/h (2 Bft)
08.12.2016 15:00 23,8 C -1,5 C 43 % 92 % 1033,9 hPa 0,0 l/m 2,6 km/h (1 Bft) S 0,00 h 0,0 UV-I 19 W/m -2,5 C -1,5 C 4,9 km/h (1 Bft)
08.12.2016 16:00 23,5 C -1,9 C 43 % 94 % 1034,0 hPa 0,0 l/m 2,2 km/h (1 Bft) S 0,00 h 0,0 UV-I 5 W/m -2,7 C -2,0 C 4,3 km/h (1 Bft)
08.12.2016 17:00 23,6 C -2,1 C 43 % 95 % 1034,1 hPa 0,0 l/m 3,0 km/h (1 Bft) S 0,00 h 0,0 UV-I 0 W/m -2,8 C -2,1 C 6,1 km/h (2 Bft)
08.12.2016 18:00 23,6 C -2,1 C 44 % 95 % 1033,9 hPa 0,0 l/m 2,0 km/h (1 Bft) S 0,00 h 0,0 UV-I 0 W/m -2,8 C -2,2 C 4,9 km/h (1 Bft)
08.12.2016 19:00 23,8 C -2,2 C 44 % 95 % 1033,8 hPa 0,0 l/m 0,4 km/h (0 Bft) W-SW 0,00 h 0,0 UV-I 0 W/m -2,9 C -2,2 C 1,4 km/h (1 Bft)
08.12.2016 20:00 23,8 C -2,2 C 45 % 95 % 1033,5 hPa 0,0 l/m 0,0 km/h (0 Bft) SW 0,00 h 0,0 UV-I 0 W/m -2,9 C -2,2 C 0,0 km/h (0 Bft)
08.12.2016 21:00 23,8 C -2,0 C 45 % 95 % 1033,0 hPa 0,0 l/m 0,3 km/h (0 Bft) W-NW 0,00 h 0,0 UV-I 0 W/m -2,7 C -2,0 C 0,8 km/h (0 Bft)
08.12.2016 22:00 23,5 C -1,7 C 44 % 95 % 1033,1 hPa 0,0 l/m 0,9 km/h (0 Bft) W 0,00 h 0,0 UV-I 0 W/m -2,3 C -1,7 C 2,4 km/h (1 Bft)
08.12.2016 23:00 23,1 C -1,4 C 42 % 94 % 1032,7 hPa 0,0 l/m 1,1 km/h (1 Bft) S 0,00 h 0,0 UV-I 0 W/m -2,2 C -1,4 C 2,4 km/h (1 Bft)
09.12.2016 00:00 23,3 C -1,4 C 43 % 94 % 1032,5 hPa 0,0 l/m 1,1 km/h (1 Bft) S 0,00 h 0,0 UV-I 0 W/m -2,2 C -1,4 C 2,4 km/h (1 Bft)
09.12.2016 01:00 23,4 C -1,4 C 45 % 94 % 1032,1 hPa 0,0 l/m 1,3 km/h (1 Bft) O-SO 0,00 h 0,0 UV-I 0 W/m -2,1 C -1,4 C 3,5 km/h (1 Bft)
09.12.2016 02:00 23,4 C -1,1 C 46 % 93 % 1032,1 hPa 0,0 l/m 0,8 km/h (0 Bft) O-SO 0,00 h 0,0 UV-I 0 W/m -2,0 C -1,1 C 1,9 km/h (1 Bft)
09.12.2016 03:00 23,3 C -2,0 C 46 % 93 % 1032,2 hPa 0,0 l/m 0,7 km/h (0 Bft) SO 0,00 h 0,0 UV-I 0 W/m -3,0 C -2,0 C 1,4 km/h (1 Bft)
09.12.2016 04:00 23,1 C -2,4 C 47 % 94 % 1032,0 hPa 0,0 l/m 1,2 km/h (1 Bft) S-SO 0,00 h 0,0 UV-I 0 W/m -3,2 C -2,4 C 2,5 km/h (1 Bft)
09.12.2016 05:00 22,9 C -1,2 C 47 % 95 % 1031,8 hPa 0,0 l/m 2,3 km/h (1 Bft) S-SO 0,00 h 0,0 UV-I 0 W/m -1,9 C -1,2 C 4,5 km/h (1 Bft)
09.12.2016 06:00 22,9 C -0,3 C 47 % 95 % 1031,6 hPa 0,0 l/m 1,2 km/h (1 Bft) S-SO 0,00 h 0,0 UV-I 0 W/m -1,1 C -0,3 C 3,0 km/h (1 Bft)
09.12.2016 07:00 22,7 C 0,2 C 47 % 93 % 1031,7 hPa 0,0 l/m 2,6 km/h (1 Bft) S 0,00 h 0,0 UV-I 0 W/m -0,8 C 0,1 C 5,5 km/h (1 Bft)
09.12.2016 08:00 22,5 C 0,3 C 46 % 93 % 1032,1 hPa 0,0 l/m 2,9 km/h (1 Bft) S 0,00 h 0,0 UV-I 11 W/m -0,7 C 0,3 C 6,3 km/h (2 Bft)
09.12.2016 09:00 22,6 C 0,9 C 46 % 93 % 1032,2 hPa 0,0 l/m 2,3 km/h (1 Bft) S-SW 0,00 h 0,0 UV-I 20 W/m -0,1 C 0,9 C 5,6 km/h (1 Bft)
09.12.2016 10:00 22,6 C 1,5 C 46 % 91 % 1032,5 hPa 0,0 l/m 1,8 km/h (1 Bft) S 0,00 h 0,0 UV-I 25 W/m 0,2 C 1,5 C 4,6 km/h (1 Bft)
09.12.2016 11:00 22,5 C 2,0 C 45 % 90 % 1032,3 hPa 0,0 l/m 1,5 km/h (1 Bft) S 0,15 h 0,7 UV-I 88 W/m 0,6 C 1,9 C 3,9 km/h (1 Bft)
09.12.2016 12:00 23,0 C 2,9 C 46 % 88 % 1032,0 hPa 0,0 l/m 4,2 km/h (1 Bft) W-SW 0,00 h 0,6 UV-I 98 W/m 1,1 C 2,7 C 8,8 km/h (2 Bft)
09.12.2016 13:00 22,9 C 3,5 C 44 % 88 % 1031,8 hPa 0,0 l/m 7,5 km/h (2 Bft) W-SW 0,00 h 0,6 UV-I 87 W/m 1,7 C 2,0 C 13,2 km/h (3 Bft)
09.12.2016 14:00 23,0 C 3,3 C 45 % 91 % 1031,7 hPa 0,0 l/m 6,2 km/h (2 Bft) W-SW 0,00 h 0,5 UV-I 42 W/m 1,9 C 2,3 C 11,6 km/h (2 Bft)
09.12.2016 15:00 23,0 C 2,4 C 45 % 91 % 1032,1 hPa 0,0 l/m 2,1 km/h (1 Bft) S 0,00 h 0,0 UV-I 10 W/m 1,2 C 2,4 C 4,9 km/h (1 Bft)
09.12.2016 16:00 22,9 C 2,0 C 44 % 94 % 1032,3 hPa 0,0 l/m 2,0 km/h (1 Bft) S-SW 0,00 h 0,0 UV-I 0 W/m 1,1 C 2,0 C 4,7 km/h (1 Bft)
09.12.2016 17:00 23,2 C 2,2 C 45 % 95 % 1032,3 hPa 0,0 l/m 2,0 km/h (1 Bft) S-SW 0,00 h 0,0 UV-I 0 W/m 1,4 C 2,2 C 4,2 km/h (1 Bft)
09.12.2016 18:00 23,2 C 2,3 C 45 % 95 % 1032,1 hPa 0,0 l/m 1,7 km/h (1 Bft) S 0,00 h 0,0 UV-I 0 W/m 1,5 C 2,3 C 3,4 km/h (1 Bft)
09.12.2016 19:00 23,1 C 2,5 C 44 % 95 % 1032,1 hPa 0,0 l/m 0,4 km/h (0 Bft) SO 0,00 h 0,0 UV-I 0 W/m 1,8 C 2,5 C 1,3 km/h (1 Bft)
09.12.2016 20:00 23,3 C 2,9 C 44 % 95 % 1031,8 hPa 0,0 l/m 1,2 km/h (1 Bft) S 0,00 h 0,0 UV-I 0 W/m 2,2 C 2,9 C 3,5 km/h (1 Bft)
09.12.2016 21:00 23,4 C 3,1 C 45 % 95 % 1031,7 hPa 0,0 l/m 1,4 km/h (1 Bft) S 0,00 h 0,0 UV-I 0 W/m 2,4 C 3,1 C 3,8 km/h (1 Bft)
09.12.2016 22:00 23,4 C 3,1 C 46 % 95 % 1031,4 hPa 0,0 l/m 0,9 km/h (0 Bft) S-SW 0,00 h 0,0 UV-I 0 W/m 2,3 C 3,1 C 2,8 km/h (1 Bft)
09.12.2016 23:00 23,3 C 3,1 C 44 % 96 % 1030,9 hPa 0,0 l/m 0,8 km/h (0 Bft) S-SW 0,00 h 0,0 UV-I 0 W/m 2,5 C 3,1 C 2,0 km/h (1 Bft)
10.12.2016 00:00 23,0 C 3,3 C 43 % 96 % 1030,5 hPa 0,0 l/m 1,2 km/h (1 Bft) S 0,00 h 0,0 UV-I 0 W/m 2,7 C 3,3 C 3,3 km/h (1 Bft)
10.12.2016 01:00 23,0 C 3,1 C 43 % 97 % 1030,0 hPa 0,0 l/m 0,1 km/h (0 Bft) SW 0,00 h 0,0 UV-I 0 W/m 2,7 C 3,1 C 0,5 km/h (0 Bft)
10.12.2016 02:00 23,2 C 3,0 C 44 % 97 % 1029,7 hPa 0,0 l/m 1,8 km/h (1 Bft) S 0,00 h 0,0 UV-I 0 W/m 2,6 C 3,0 C 4,0 km/h (1 Bft)
10.12.2016 03:00 23,2 C 3,0 C 46 % 97 % 1029,0 hPa 0,0 l/m 0,3 km/h (0 Bft) O-SO 0,00 h 0,0 UV-I 0 W/m 2,6 C 3,0 C 0,9 km/h (0 Bft)
10.12.2016 04:00 23,1 C 3,3 C 47 % 97 % 1028,2 hPa 0,0 l/m 0,0 km/h (0 Bft) N 0,00 h 0,0 UV-I 0 W/m 2,8 C 3,3 C 0,2 km/h (0 Bft)
10.12.2016 05:00 23,1 C 3,6 C 47 % 97 % 1027,8 hPa 0,0 l/m 0,4 km/h (0 Bft) S 0,00 h 0,0 UV-I 0 W/m 3,1 C 3,6 C 0,8 km/h (0 Bft)
10.12.2016 06:00 23,0 C 3,8 C 48 % 97 % 1027,6 hPa 0,0 l/m 0,2 km/h (0 Bft) S-SW 0,00 h 0,0 UV-I 0 W/m 3,4 C 3,8 C 0,8 km/h (0 Bft)
10.12.2016 07:00 22,9 C 4,1 C 47 % 96 % 1027,5 hPa 0,0 l/m 0,0 km/h (0 Bft) N 0,00 h 0,0 UV-I 0 W/m 3,6 C 4,1 C 0,1 km/h (0 Bft)
10.12.2016 08:00 22,7 C 3,7 C 48 % 95 % 1027,5 hPa 0,0 l/m 0,1 km/h (0 Bft) SW 0,00 h 0,0 UV-I 11 W/m 3,0 C 3,7 C 0,8 km/h (0 Bft)
10.12.2016 09:00 22,7 C 3,7 C 48 % 94 % 1027,4 hPa 0,0 l/m 0,4 km/h (0 Bft) S 0,02 h 0,5 UV-I 47 W/m 2,8 C 3,7 C 1,7 km/h (1 Bft)
10.12.2016 10:00 22,6 C 5,2 C 47 % 89 % 1027,3 hPa 0,0 l/m 2,1 km/h (1 Bft) S 1,00 h 0,7 UV-I 188 W/m 3,5 C 5,1 C 5,2 km/h (1 Bft)
10.12.2016 11:00 22,7 C 6,5 C 45 % 85 % 1026,7 hPa 0,0 l/m 2,2 km/h (1 Bft) S 1,00 h 0,9 UV-I 255 W/m 4,1 C 6,4 C 5,0 km/h (1 Bft)
10.12.2016 12:00 22,8 C 7,9 C 45 % 80 % 1026,1 hPa 0,0 l/m 1,0 km/h (0 Bft) S 1,00 h 0,9 UV-I 267 W/m 4,7 C 7,9 C 3,2 km/h (1 Bft)
10.12.2016 13:00 22,9 C 8,4 C 44 % 78 % 1025,4 hPa 0,0 l/m 1,2 km/h (1 Bft) S 0,58 h 0,7 UV-I 161 W/m 4,7 C 8,4 C 3,3 km/h (1 Bft)
10.12.2016 14:00 22,8 C 7,4 C 44 % 81 % 1024,9 hPa 0,0 l/m 0,0 km/h (0 Bft) N 0,00 h 0,5 UV-I 72 W/m 4,4 C 7,4 C 0,1 km/h (0 Bft)
10.12.2016 15:00 23,1 C 7,0 C 47 % 83 % 1024,8 hPa 0,0 l/m 0,2 km/h (0 Bft) S 0,00 h 0,0 UV-I 48 W/m 4,2 C 7,0 C 0,8 km/h (0 Bft)
10.12.2016 16:00 23,3 C 6,1 C 46 % 85 % 1024,7 hPa 0,0 l/m 0,0 km/h (0 Bft) S-SW 0,00 h 0,0 UV-I 6 W/m 3,8 C 6,1 C 0,3 km/h (0 Bft)
10.12.2016 17:00 23,6 C 4,7 C 46 % 87 % 1024,9 hPa 0,0 l/m 0,7 km/h (0 Bft) S-SO 0,00 h 0,0 UV-I 0 W/m 2,7 C 4,7 C 1,7 km/h (1 Bft)
10.12.2016 18:00 23,6 C 3,6 C 45 % 90 % 1024,6 hPa 0,0 l/m 0,0 km/h (0 Bft) N 0,00 h 0,0 UV-I 0 W/m 2,0 C 3,6 C 0,0 km/h (0 Bft)
10.12.2016 19:00 23,7 C 2,3 C 47 % 90 % 1024,3 hPa 0,0 l/m 0,1 km/h (0 Bft) O-NO 0,00 h 0,0 UV-I 0 W/m 0,9 C 2,3 C 0,3 km/h (0 Bft)
10.12.2016 20:00 23,3 C 1,0 C 45 % 91 % 1024,1 hPa 0,0 l/m 0,0 km/h (0 Bft) SW 0,00 h 0,0 UV-I 0 W/m -0,3 C 1,0 C 0,2 km/h (0 Bft)
10.12.2016 21:00 23,3 C 0,1 C 46 % 92 % 1023,8 hPa 0,0 l/m 0,0 km/h (0 Bft) N 0,00 h 0,0 UV-I 0 W/m -1,1 C 0,1 C 0,0 km/h (0 Bft)
10.12.2016 22:00 23,5 C -0,8 C 46 % 92 % 1023,3 hPa 0,0 l/m 0,2 km/h (0 Bft) S 0,00 h 0,0 UV-I 0 W/m -1,9 C -0,8 C 0,8 km/h (0 Bft)
10.12.2016 23:00 23,2 C -0,8 C 44 % 94 % 1022,6 hPa 0,0 l/m 0,0 km/h (0 Bft) N 0,00 h 0,0 UV-I 0 W/m -1,6 C -0,8 C 0,1 km/h (0 Bft)
11.12.2016 00:00 22,9 C -0,1 C 42 % 95 % 1021,9 hPa 0,0 l/m 1,6 km/h (1 Bft) S 0,00 h 0,0 UV-I 0 W/m -0,8 C -0,1 C 3,9 km/h (1 Bft)
11.12.2016 01:00 23,0 C 1,1 C 43 % 94 % 1021,2 hPa 0,0 l/m 3,3 km/h (1 Bft) S-SW 0,00 h 0,0 UV-I 0 W/m 0,3 C 1,1 C 7,1 km/h (2 Bft)
11.12.2016 02:00 22,9 C 1,7 C 42 % 91 % 1020,7 hPa 0,0 l/m 3,4 km/h (1 Bft) S 0,00 h 0,0 UV-I 0 W/m 0,4 C 1,6 C 7,6 km/h (2 Bft)
11.12.2016 03:00 23,2 C 2,3 C 43 % 89 % 1019,8 hPa 0,0 l/m 1,3 km/h (1 Bft) S 0,00 h 0,0 UV-I 0 W/m 0,7 C 2,3 C 3,1 km/h (1 Bft)
11.12.2016 04:00 23,3 C 2,4 C 45 % 89 % 1018,9 hPa 0,0 l/m 4,7 km/h (1 Bft) S-SW 0,00 h 0,0 UV-I 0 W/m 0,8 C 2,1 C 8,6 km/h (2 Bft)
11.12.2016 05:00 23,2 C 2,3 C 46 % 91 % 1018,3 hPa 0,0 l/m 3,6 km/h (1 Bft) S 0,00 h 0,0 UV-I 0 W/m 1,0 C 2,2 C 7,3 km/h (2 Bft)
11.12.2016 06:00 23,2 C 2,7 C 46 % 91 % 1017,7 hPa 0,0 l/m 3,8 km/h (1 Bft) SW 0,00 h 0,0 UV-I 0 W/m 1,4 C 2,5 C 9,9 km/h (2 Bft)
11.12.2016 07:00 23,1 C 2,9 C 47 % 92 % 1017,3 hPa 0,0 l/m 3,7 km/h (1 Bft) S-SW 0,00 h 0,0 UV-I 0 W/m 1,8 C 2,9 C 8,4 km/h (2 Bft)
11.12.2016 08:00 22,9 C 3,2 C 47 % 95 % 1016,8 hPa 0,6 l/m 3,8 km/h (1 Bft) W-SW 0,00 h 0,0 UV-I 6 W/m 2,4 C 3,1 C 8,6 km/h (2 Bft)
11.12.2016 09:00 23,0 C 4,2 C 46 % 96 % 1017,1 hPa 0,6 l/m 7,2 km/h (2 Bft) SW 0,00 h 0,0 UV-I 6 W/m 3,6 C 3,0 C 13,3 km/h (3 Bft)
11.12.2016 10:00 23,3 C 5,3 C 47 % 96 % 1017,2 hPa 0,2 l/m 11,7 km/h (2 Bft) W-SW 0,00 h 0,0 UV-I 9 W/m 4,7 C 1,4 C 19,6 km/h (3 Bft)
11.12.2016 11:00 23,1 C 5,8 C 46 % 95 % 1017,4 hPa 0,2 l/m 12,8 km/h (3 Bft) W-SW 0,00 h 0,5 UV-I 30 W/m 5,0 C 1,4 C 21,3 km/h (4 Bft)
11.12.2016 12:00 23,1 C 5,7 C 46 % 94 % 1018,0 hPa 0,0 l/m 12,9 km/h (3 Bft) W 0,02 h 0,6 UV-I 61 W/m 4,8 C 1,1 C 20,2 km/h (4 Bft)
11.12.2016 13:00 23,1 C 6,1 C 46 % 90 % 1018,8 hPa 0,0 l/m 12,0 km/h (2 Bft) W 0,17 h 0,6 UV-I 125 W/m 4,6 C 2,2 C 18,7 km/h (3 Bft)
11.12.2016 14:00 23,1 C 6,1 C 46 % 87 % 1019,3 hPa 0,0 l/m 10,1 km/h (2 Bft) W 0,07 h 0,0 UV-I 72 W/m 4,0 C 3,4 C 16,2 km/h (3 Bft)
11.12.2016 15:00 23,1 C 5,4 C 46 % 88 % 1019,6 hPa 0,0 l/m 7,1 km/h (2 Bft) W 0,00 h 0,0 UV-I 7 W/m 3,6 C 4,3 C 12,1 km/h (2 Bft)
11.12.2016 16:00 23,1 C 5,0 C 46 % 91 % 1020,0 hPa 0,0 l/m 10,4 km/h (2 Bft) W 0,00 h 0,0 UV-I 0 W/m 3,6 C 1,9 C 16,7 km/h (3 Bft)
11.12.2016 17:00 23,6 C 4,8 C 46 % 91 % 1020,0 hPa 0,0 l/m 11,4 km/h (2 Bft) W 0,00 h 0,0 UV-I 0 W/m 3,4 C 1,1 C 17,2 km/h (3 Bft)
11.12.2016 18:00 23,8 C 4,6 C 46 % 92 % 1020,1 hPa 0,2 l/m 9,4 km/h (2 Bft) W 0,00 h 0,0 UV-I 0 W/m 3,4 C 2,1 C 14,9 km/h (3 Bft)
11.12.2016 19:00 23,7 C 4,3 C 46 % 93 % 1020,1 hPa 0,0 l/m 10,2 km/h (2 Bft) W 0,00 h 0,0 UV-I 0 W/m 3,2 C 1,3 C 15,8 km/h (3 Bft)
11.12.2016 20:00 23,5 C 4,2 C 45 % 93 % 1020,0 hPa 0,0 l/m 9,0 km/h (2 Bft) W 0,00 h 0,0 UV-I 0 W/m 3,2 C 2,0 C 14,8 km/h (3 Bft)
11.12.2016 21:00 23,7 C 4,3 C 46 % 92 % 1019,9 hPa 0,0 l/m 11,6 km/h (2 Bft) W 0,00 h 0,0 UV-I 0 W/m 3,1 C 0,4 C 17,8 km/h (3 Bft)
11.12.2016 22:00 23,9 C 4,2 C 46 % 92 % 1020,0 hPa 0,0 l/m 10,1 km/h (2 Bft) W 0,00 h 0,0 UV-I 0 W/m 3,0 C 1,1 C 15,9 km/h (3 Bft)
11.12.2016 23:00 23,5 C 3,9 C 44 % 94 % 1020,0 hPa 0,2 l/m 9,7 km/h (2 Bft) W 0,00 h 0,0 UV-I 0 W/m 3,0 C 1,2 C 15,1 km/h (3 Bft)
Min-Datum _ 07.12.16 05.12.16 05.12.16 10.12.16 11.12.16 - 05.12.16 - - - - 05.12.16 05.12.16 05.12.16
_ Min-Zeit 10:45 08:01 19:07 13:20 08:27 - 00:01 - - - - 08:01 21:08 00:01
Minimum _ 21,6 C -8,1 C 34 % 75 % 1016,6 hPa - 0,0 km/h (0 Bft) - - - - -9,4 C -10,9 C 0,0 km/h (0 Bft)
Max-Datum _ 11.12.16 10.12.16 05.12.16 07.12.16 07.12.16 11.12.16 11.12.16 - 10.12.16 08.12.16 08.12.16 10.12.16 10.12.16 11.12.16
_ Max-Zeit 22:25 13:18 08:18 20:11 08:31 08:31 11:18 - 11:19 12:42 12:42 13:16 13:18 11:14
Maximum _ 24,1 C 8,9 C 50 % 97 % 1038,3 hPa 0,6 l/m 22,5 km/h
W-SW (4 Bft)
- 0,03 h 1,0 UV-I 381 W/m 5,2 C 8,9 C 32,2 km/h
W-SW (5 Bft)
Durchschnitt _ 22,8 C -0,7 C 44 % 93 % 1030,6 hPa #2,0 l/m 2,3 km/h (1 Bft) S #5:24 h 0,6 UV-I 64 W/m -1,7 C -1,1 C 4,4 km/h (1 Bft)